Location: Notre Dame Regional High School Observatory
(37.3056°N, 89.6097°W)
Time: 15:16:11
(UTC-06:00)

Okean 2 Rocket - Visible Passes

Search period start: 11 February 2016 00:00
Search period end: 21 February 2016 00:00
Orbit: 618 x 641 km, 82.5° (Epoch: 10 February)

Date Brightness Start Highest point End Pass type
(mag) Time Alt. Az. Time Alt. Az. Time Alt. Az.
11 Feb 6.1 04:26:29 10° NE 04:29:08 15° ENE 04:31:46 10° ESE visible
11 Feb 3.5 06:03:09 10° NNW 06:07:25 42° W 06:11:39 10° SSW visible
11 Feb 3.8 18:33:34 10° SSW 18:37:57 57° W 18:42:24 10° N visible
12 Feb 5.0 04:46:05 10° NNE 04:50:04 30° ENE 04:54:01 10° SE visible
12 Feb 5.3 18:54:57 10° SW 18:58:46 27° WNW 19:02:39 10° NNW visible
13 Feb 3.5 05:06:22 10° N 05:10:52 63° E 05:15:18 10° SSE visible
13 Feb 6.2 19:17:24 10° WSW 19:19:44 14° WNW 19:22:04 10° NW visible
14 Feb 6.4 03:51:56 10° NE 03:53:03 11° ENE 03:54:10 10° E visible
14 Feb 3.1 05:27:05 10° NNW 05:31:33 60° W 05:35:58 10° S visible
14 Feb 3.3 17:57:32 10° S 18:02:01 82° W 18:06:33 10° N visible
15 Feb 5.5 04:10:32 10° NNE 04:14:03 22° ENE 04:17:32 10° SE visible
15 Feb 3.9 05:48:14 10° NNW 05:52:06 28° W 05:55:55 10° SSW visible
15 Feb 4.8 18:18:36 10° SSW 18:22:46 38° WNW 18:26:59 10° N visible
16 Feb 4.2 04:30:35 10° N 04:34:55 44° E 04:39:11 10° SSE visible
16 Feb 4.7 06:10:13 10° NW 06:12:32 14° W 06:14:50 10° WSW visible
16 Feb 6.0 18:40:27 10° WSW 18:43:40 19° WNW 18:46:54 10° NNW visible
17 Feb 3.0 04:51:06 10° N 04:55:39 86° W 05:00:07 10° S visible
18 Feb 5.9 03:37:28 16° ENE 03:38:00 16° ENE 03:40:45 10° ESE visible
18 Feb 3.5 05:15:08 33° WNW 05:16:14 40° W 05:20:25 10° SSW visible
19 Feb 5.4 04:01:30 18° SE 04:01:30 18° SE 04:02:54 10° SE visible
19 Feb 5.0 05:39:04 13° SW 05:39:04 13° SW 05:39:55 10° SW visible
19 Feb 5.6 18:03:51 10° SW 18:07:37 26° WNW 18:11:26 10° NNW visible
20 Feb 6.2 18:26:26 10° W 18:28:35 13° WNW 18:30:45 10° NW visible
